Savoonga, AK

11:55 AM AKST on December 17, 2017 (GMT -0900)
Savoonga

Weather History for PASA - September, 2013

Change the Weather History Date:

Friday, September 13, 2013

  Actual Average Record
Temperature  
Mean Temperature 42 °F -  
Max Temperature 44 °F 42 °F 51 °F (2007)
Min Temperature 39 °F 36 °F 28 °F (1996)
Degree Days  
Heating Degree Days 24    
Moisture  
Dew Point 37 °F    
Average Humidity 84    
Maximum Humidity 93    
Minimum Humidity 53    
Precipitation  
Precipitation 0.00 in - - ()
Sea Level Pressure  
Sea Level Pressure 29.92 in    
Wind  
Wind Speed 11 mph (East)    
Max Wind Speed 23 mph    
Max Gust Speed 31 mph    
Visibility 9 miles    
Events      
Averages and records for this station are not official NWS values.
T = Trace of Precipitation, MM = Missing Value Source: NWS Daily Summary

Daily Weather History Graph

Daily Weather History Graph

Search for Another Location

Airport or City:

Trip Planner

Search our weather history database for the weather conditions in past years. The results will help you decide how hot, cold, wet, or windy it might be!

Date:

Astronomy

Sep. 13, 2013 Rise Set
Actual Time 8:41 AM AKDT 9:52 PM AKDT
Civil Twilight 7:52 AM AKDT 10:40 PM AKDT
Nautical Twilight 6:51 AM AKDT 11:41 PM AKDT
Astronomical Twilight 5:35 AM AKDT 12:55 AM AKDT
Moon 7:24 PM AKDT (9/13) 12:45 AM AKDT (9/13)
Length of Visible Light 14h 47m
Length of Day
13h 10m
Waxing Gibbous, 63% of the Moon is Illuminated
Sep 13
Waxing Gibbous
Sep 19
Full
Sep 26
Last Quarter
Oct 4
New
Oct 11
First Quarter

Hourly Weather History & Observations

Time (AKDT) Temp. Windchill Dew Point Humidity Pressure Visibility Wind Dir Wind Speed Gust Speed Precip Events Conditions
12:16 AM 44.6 °F 37.8 °F 35.6 °F 71% 29.81 in 10.0 mi South 15.0 mph - N/A   Overcast
12:36 AM 44.6 °F 39.2 °F 35.6 °F 71% 29.81 in 10.0 mi South 10.4 mph - N/A   Overcast
12:56 AM 44.6 °F 40.7 °F 35.6 °F 71% 29.81 in 10.0 mi SSW 6.9 mph - N/A   Overcast
1:16 AM 44.6 °F 41.4 °F 33.8 °F 66% 29.80 in 10.0 mi SW 5.8 mph - N/A   Overcast
1:36 AM 44.6 °F 40.2 °F 30.2 °F 57% 29.80 in 10.0 mi SSW 8.1 mph - N/A   Overcast
1:56 AM 44.6 °F 39.2 °F 28.4 °F 53% 29.79 in 10.0 mi SSW 10.4 mph - N/A   Overcast
2:16 AM 44.6 °F 36.4 °F 28.4 °F 53% 29.78 in 10.0 mi SSW 20.7 mph 26.5 mph N/A   Overcast
2:36 AM 44.6 °F 36.4 °F 33.8 °F 66% 29.77 in 10.0 mi SSW 20.7 mph 26.5 mph N/A   Overcast
2:56 AM 44.6 °F 36.1 °F 35.6 °F 71% 29.76 in 10.0 mi SSW 21.9 mph 31.1 mph N/A   Overcast
3:16 AM 44.6 °F 36.4 °F 35.6 °F 71% 29.77 in 10.0 mi SSW 20.7 mph 31.1 mph N/A   Overcast
3:36 AM 42.8 °F 33.5 °F 37.4 °F 81% 29.77 in 7.0 mi SSW 23.0 mph 27.6 mph N/A   Overcast
3:56 AM 42.8 °F 33.8 °F 37.4 °F 81% 29.77 in 5.0 mi SSW 21.9 mph 31.1 mph N/A   Overcast
4:16 AM 42.8 °F 33.8 °F 37.4 °F 81% 29.78 in 5.0 mi SSW 21.9 mph 28.8 mph N/A   Overcast
4:36 AM 44.6 °F 35.9 °F 37.4 °F 76% 29.77 in 7.0 mi SSW 23.0 mph 28.8 mph N/A   Overcast
4:56 AM 42.8 °F 33.5 °F 39.2 °F 87% 29.77 in 5.0 mi SSW 23.0 mph 29.9 mph N/A   Overcast
5:16 AM 44.6 °F 37.2 °F 39.2 °F 81% 29.78 in 6.0 mi SW 17.3 mph 26.5 mph N/A   Overcast
5:36 AM 44.6 °F 36.4 °F 39.2 °F 81% 29.78 in 10.0 mi SSW 20.7 mph 25.3 mph N/A   Overcast
5:56 AM 44.6 °F 37.4 °F 39.2 °F 81% 29.78 in 10.0 mi SW 16.1 mph 20.7 mph N/A   Overcast
6:16 AM 44.6 °F 38.1 °F 41.0 °F 87% 29.79 in 10.0 mi SW 13.8 mph 19.6 mph N/A   Overcast
6:36 AM 44.6 °F 38.4 °F 41.0 °F 87% 29.79 in 10.0 mi SW 12.7 mph - N/A   Overcast
6:56 AM 44.6 °F 38.8 °F 41.0 °F 87% 29.80 in 10.0 mi SW 11.5 mph - N/A   Overcast
7:16 AM 44.6 °F 39.2 °F 41.0 °F 87% 29.80 in 5.0 mi SW 10.4 mph - N/A   Overcast
7:36 AM 44.6 °F 38.8 °F 42.8 °F 93% 29.80 in 7.0 mi WSW 11.5 mph - N/A   Overcast
7:56 AM 44.6 °F 38.8 °F 41.0 °F 87% 29.81 in 4.0 mi WSW 11.5 mph - N/A   Overcast
8:16 AM 44.6 °F 39.2 °F 41.0 °F 87% 29.81 in 4.0 mi WSW 10.4 mph - N/A   Overcast
8:36 AM 44.6 °F 40.7 °F 41.0 °F 87% 29.82 in 10.0 mi WSW 6.9 mph - N/A   Overcast
8:56 AM 44.6 °F 40.2 °F 41.0 °F 87% 29.83 in 10.0 mi West 8.1 mph - N/A   Overcast
9:16 AM 44.6 °F 38.8 °F 42.8 °F 93% 29.84 in 5.0 mi West 11.5 mph - N/A   Overcast
9:36 AM 41.0 °F 35.2 °F 37.4 °F 87% 29.85 in 3.0 mi North 9.2 mph - N/A   Overcast
9:56 AM 41.0 °F 36.4 °F 37.4 °F 87% 29.86 in 9.0 mi North 6.9 mph - N/A   Overcast
10:16 AM 41.0 °F 37.1 °F 37.4 °F 87% 29.87 in 10.0 mi North 5.8 mph - N/A   Overcast
10:36 AM 41.0 °F 37.1 °F 37.4 °F 87% 29.88 in 10.0 mi North 5.8 mph - N/A   Overcast
10:56 AM 41.0 °F - 37.4 °F 87% 29.89 in 10.0 mi Calm Calm - N/A   Overcast
11:16 AM 41.0 °F - 37.4 °F 87% 29.90 in 10.0 mi Calm Calm - N/A   Overcast
11:36 AM 41.0 °F 39.0 °F 37.4 °F 87% 29.91 in 10.0 mi North 3.5 mph - N/A   Overcast
11:56 AM 39.2 °F 34.2 °F 37.4 °F 93% 29.92 in 10.0 mi North 6.9 mph - N/A   Overcast
12:16 PM 39.2 °F 35.0 °F 37.4 °F 93% 29.93 in 10.0 mi North 5.8 mph - N/A   Overcast
12:36 PM 39.2 °F 37.0 °F 37.4 °F 93% 29.94 in 10.0 mi NNE 3.5 mph - N/A   Overcast
12:56 PM 39.2 °F 35.9 °F 37.4 °F 93% 29.94 in 10.0 mi NNE 4.6 mph - N/A   Overcast
1:16 PM 39.2 °F 33.6 °F 35.6 °F 87% 29.95 in 10.0 mi NNE 8.1 mph - N/A   Overcast
1:36 PM 39.2 °F 35.0 °F 37.4 °F 93% 29.96 in 10.0 mi NE 5.8 mph - N/A   Overcast
1:56 PM 39.2 °F 33.6 °F 35.6 °F 87% 29.96 in 10.0 mi NNE 8.1 mph - N/A   Overcast
2:16 PM 39.2 °F 35.0 °F 33.8 °F 81% 29.97 in 10.0 mi NE 5.8 mph - N/A   Overcast
2:36 PM 39.2 °F 34.2 °F 33.8 °F 81% 29.97 in 10.0 mi NE 6.9 mph - N/A   Overcast
2:56 PM 39.2 °F 35.0 °F 35.6 °F 87% 29.98 in 10.0 mi NE 5.8 mph - N/A   Overcast
3:16 PM 39.2 °F 35.9 °F 35.6 °F 87% 29.98 in 10.0 mi East 4.6 mph - N/A   Overcast
3:36 PM 39.2 °F 35.9 °F 35.6 °F 87% 29.99 in 10.0 mi East 4.6 mph - N/A   Overcast
3:56 PM 39.2 °F 35.0 °F 37.4 °F 93% 30.00 in 10.0 mi East 5.8 mph - N/A   Overcast
4:16 PM 39.2 °F 35.9 °F 37.4 °F 93% 30.00 in 10.0 mi East 4.6 mph - N/A   Overcast
4:36 PM 39.2 °F 35.9 °F 37.4 °F 93% 30.01 in 10.0 mi East 4.6 mph - N/A   Overcast
4:56 PM 39.2 °F 35.9 °F 37.4 °F 93% 30.01 in 10.0 mi ENE 4.6 mph - N/A   Overcast
5:16 PM 39.2 °F 34.2 °F 37.4 °F 93% 30.02 in 10.0 mi NE 6.9 mph - N/A   Overcast
5:36 PM 39.2 °F 33.6 °F 35.6 °F 87% 30.02 in 10.0 mi NE 8.1 mph - N/A   Overcast
5:56 PM 39.2 °F 33.6 °F 33.8 °F 81% 30.03 in 10.0 mi NE 8.1 mph - N/A   Overcast
6:16 PM 39.2 °F 34.2 °F 33.8 °F 81% 30.03 in 10.0 mi ENE 6.9 mph - N/A   Overcast
6:36 PM 39.2 °F 33.0 °F 33.8 °F 81% 30.03 in 10.0 mi ENE 9.2 mph - N/A   Overcast
6:56 PM 39.2 °F 33.0 °F 33.8 °F 81% 30.03 in 10.0 mi ENE 9.2 mph - N/A   Overcast
7:16 PM 39.2 °F 33.0 °F 33.8 °F 81% 30.04 in 10.0 mi ENE 9.2 mph - N/A   Overcast
7:36 PM 39.2 °F 33.0 °F 35.6 °F 87% 30.04 in 10.0 mi ENE 9.2 mph - N/A   Overcast
7:56 PM 39.2 °F 33.0 °F 35.6 °F 87% 30.04 in 10.0 mi East 9.2 mph - N/A   Overcast
8:16 PM 39.2 °F 33.6 °F 37.4 °F 93% 30.05 in 10.0 mi East 8.1 mph - N/A   Overcast
8:36 PM 39.2 °F 33.0 °F 37.4 °F 93% 30.05 in 10.0 mi East 9.2 mph - N/A   Overcast
8:56 PM 39.2 °F 33.0 °F 35.6 °F 87% 30.06 in 10.0 mi East 9.2 mph - N/A   Overcast
9:16 PM 39.2 °F 33.6 °F 37.4 °F 93% 30.06 in 10.0 mi East 8.1 mph - N/A   Overcast
9:36 PM 39.2 °F 33.0 °F 35.6 °F 87% 30.07 in 10.0 mi East 9.2 mph - N/A   Overcast
9:56 PM 39.2 °F 33.6 °F 35.6 °F 87% 30.08 in 10.0 mi East 8.1 mph - N/A   Overcast
10:16 PM 39.2 °F 34.2 °F 35.6 °F 87% 30.08 in 10.0 mi East 6.9 mph - N/A   Overcast
10:36 PM 39.2 °F 33.6 °F 35.6 °F 87% 30.08 in 10.0 mi East 8.1 mph - N/A   Overcast
10:56 PM 39.2 °F 33.6 °F 35.6 °F 87% 30.08 in 10.0 mi East 8.1 mph - N/A   Overcast
11:16 PM 39.2 °F 33.6 °F 35.6 °F 87% 30.09 in 10.0 mi East 8.1 mph - N/A   Overcast
11:36 PM 39.2 °F 33.6 °F 35.6 °F 87% 30.09 in 10.0 mi East 8.1 mph - N/A   Overcast
11:56 PM 39.2 °F 33.0 °F 37.4 °F 93% 30.09 in 10.0 mi East 9.2 mph - N/A   Overcast